STARLINK-1836 (47127 NORAD) Tracking and Keplerian Element Data

This shows tracking and keplerian element data for the satellite.

Feedback or suggestion? Click here.




ElementValue
Catalog47127
NameSTARLINK-1836
Epoch Orbit182
Epoch Day20.91667824
Epoch Year2021
RAAN74.1272
Inclination53.056
Eccentricity0.000173
Argument of Perigee36.7849
Mean Anonmoly65.837
Mean Motion15.62749059
Decay Rate-2.43E-06
L11 47127U 20088F 21020.91667824 -.00000243 00000-0 31841-5 0 9999
L22 47127 53.0560 74.1272 0001730 36.7849 65.8370 15.62749059 1821

Live tracking and technical data element details for STARLINK-1836 (NORAD 47127). STARLINK-1836 can be tracked NOW for your location showing map with azimuth and elevation plus other details from your city location.

Track the satellite on the map from your city or location and see movement details for azimuth, elevation, latitude, longitude, range, height, and movement on the map or in text.







IsCatalogInMostPopularTable: catalog: 47127, numindb: 16
Update: records affected: 1



GetName: 47127 STARLINK-1836

Hit Count: updated at: Sat, 23 Jan 2021 16:48:53 GMT